Regional Weather Roundup
Issued by NWS Raleigh/Durham, NC

Home | Current Version | Previous Version | Text Only | Print | Product List | Glossary On
Versions: 1 2 3 4 5 6 7 8 9 10 11 12 13 14 15 16 17 18 19 20 21 22 23 24 25 26 27 28
000
ASUS42 KRAH 212110
RWRRAH
NORTH CAROLINA WEATHER ROUNDUP
NATIONAL WEATHER SERVICE RALEIGH NC
400 PM EST SUN JAN 21 2018

NOTE: "FAIR" INDICATES FEW OR NO CLOUDS BELOW 12,000 FEET WITH NO
SIGNIFICANT WEATHER AND/OR OBSTRUCTIONS TO VISIBILITY.

NCZ001-053-055-056-065-067-212200-
WESTERN NORTH CAROLINA

CITY           SKY/WX    TMP DP  RH WIND       PRES   REMARKS
ASHEVILLE      CLOUDY    63  43  48 S5        30.18S
JEFFERSON      CLOUDY    55  40  58 CALM      30.19S
HICKORY        CLOUDY    64  41  42 S7        30.17S
RUTHERFORDTON  CLOUDY    66  41  40 S5        30.18S
MOUNT AIRY     FAIR      64  43  45 S6        30.19S
BOONE          FAIR      56  39  53 SW3       30.20S
$$

NCZ021-022-025-041-071-084-088-212200-
CENTRAL NORTH CAROLINA

CITY           SKY/WX    TMP DP  RH WIND       PRES   REMARKS
CHARLOTTE      FAIR      68  41  37 S8        30.18F
GREENSBORO     FAIR      64  44  48 SW8       30.17F
WINSTON-SALEM  PTSUNNY   65  41  41 SW6       30.19S
RALEIGH-DURHAM FAIR      67  43  41 SW3       30.19S
FORT BRAGG     FAIR      71  41  33 N3        30.17S
FAYETTEVILLE   FAIR      69  42  37 CALM      30.18S
BURLINGTON     FAIR      67  43  41 SW8       30.17S
LAURINBURG     FAIR      69  41  36 CALM      30.20S
$$

NCZ011-015-027-028-043-044-047-080-103-212200-
NORTHEASTERN NORTH CAROLINA

CITY           SKY/WX    TMP DP  RH WIND       PRES   REMARKS
ROCKY MT-WILSO FAIR      67  41  38 CALM      30.19S
GREENVILLE     FAIR      66  37  34 CALM      30.20S
WASHINGTON     FAIR      67  35  30 CALM      30.20R
ELIZABETH CITY FAIR      61  49  64 E8        30.21R
MANTEO         FAIR      56  38  50 CALM      30.21S
CAPE HATTERAS  NOT AVBL
$$

NCZ078-087-090-091-093-098-101-212200-
SOUTHEASTERN NORTH CAROLINA

CITY           SKY/WX    TMP DP  RH WIND       PRES   REMARKS
LUMBERTON      FAIR      68  41  37 SW6       30.19S
GOLDSBORO      FAIR      68  43  40 W6        30.17S
KINSTON        FAIR      68  41  37 CALM      30.20S
KENANSVILLE    FAIR      68  45  42 NW6       30.20R
NEW BERN       FAIR      64  44  48 NE6       30.20S
CHERRY POINT   SUNNY     63  43  48 SE7       30.21
BEAUFORT       FAIR      54  45  71 SW5       30.22R
JACKSONVILLE   FAIR      64  44  48 SE8       30.20R
WILMINGTON     FAIR      66  41  40 S10       30.21R
$$





USA.gov is the U.S. government's official web portal to all federal, state and local government web resources and services.